Location: Zagreb
(45.8000°N, 16.0000°E)
Time: 06:58:54
(UTC+01:00)

N. Korean satellite - Pass Details

Date: 03 December 2021
Orbit: 447 x 491 km, 97.3° (Epoch: 23 January)

Event Time Altitude Azimuth Distance (km) Brightness Sun altitude
Rises 04:44:26 0° 21° (NNE) 2,469 10.3 -26.2°
Reaches altitude 10° 04:46:37 10° 31° (NNE) 1,587 9.4 -25.8°
Maximum altitude 04:49:43 33° 97° (E) 783 8.1 -25.2°
Drops below altitude 10° 04:52:48 10° 163° (SSE) 1,569 9.4 -24.7°
Sets 04:54:56 0° 173° (S) 2,435 10.3 -24.3°
